Weather in Vayk

Armenia     39°41′24″N   45°28′06″E
temp.,
°C
wind,
m/s
gust,
m/s
humid.,
%
clouds,
%
prec.,
mm/h
press.,
hPa
HPBL,
m
13 june, sun
sun1301:00+14e22582 0.0 101145
04:00+12ene33630 0.0 101226
07:00+15ene22590 0.0 101088
10:00+20sw12420 0.0 10091318
13:00+23sw46334 0.1 10072870
16:00+24sw382528 0.1 10063592
19:00+22sw124065 0.0 1006118
22:00+13ne33582 0.0 101235
14 june, mon
mon1401:00+12ene22602 0.0 101320
04:00+11ene32610 0.0 101320
07:00+14ene22580 0.0 101474
10:00+20sw12390 0.0 10121262
13:00+23wnw23290 0.0 10112221
16:00+25wnw25220 0.0 10092488
19:00+24ene11350 0.0 100935
22:00+15ene43490 0.0 101339
15 june, tue
tue1501:00+14ene33540 0.0 101327
04:00+14ene33470 0.0 101220
07:00+16ene33500 0.0 101252
10:00+23ssw12300 0.0 10091063
13:00+27sw382136 0.0 10073883
16:00+27w362114 0.0 10073323
19:00+25n223234 0.0 100724
22:00+17ene434713 0.0 101042
16 june, wed
wed1601:00+16ene33500 0.0 101032
04:00+15ene33500 0.0 101031
07:00+18ene33540 0.0 101061
10:00+25sse12330 0.0 1008974
13:00+28sse24230 0.0 10062931
16:00+29ssw34210 0.0 10062696
19:00+27ese22360 0.0 100639
22:00+18ene43570 0.0 101042
17 june, thu
thu1701:00+17ene43520 0.0 101036
04:00+16ene33460 0.0 100926
07:00+19ene33510 0.0 100953
10:00+26sse12340 0.0 10071061
13:00+29s36250 0.0 10052956
16:00+30ssw57232 0.0 10043247
19:00+25e564521 0.0 1005324
22:00+18ene446225 0.0 101052